Regional Weather Roundup
Issued by NWS

Home | Current Version | Previous Version | Text Only | Print | Product List | Glossary Off
Versions: 1 2 3 4 5 6 7 8 9 10 11 12 13 14 15 16 17 18 19 20 21 22 23 24 25 26 27 28 29 30 31 32 33 34 35 36 37 38 39 40 41 42 43 44 45 46 47 48 49 50

000
ASUS43 KMPX 012310
RWRMN
WEATHER ROUNDUP FOR MINNESOTA
NATIONAL WEATHER SERVICE TWIN CITIES/CHANHASSEN MN
600 PM CDT MON SEP 01 2014


NOTE: "FAIR" INDICATES FEW OR NO CLOUDS BELOW 12,000 FEET WITH NO
SIGNIFICANT WEATHER AND/OR OBSTRUCTIONS TO VISIBILITY. N/A MEANS
CURRENT SKY AND/OR WEATHER CONDITIONS ARE NOT AVAILABLE.

MNZ060>063-068>070-020000-
   Twin Cities Metro

CITY           SKY/WX    TMP DP  RH WIND       PRES   REMARKS
TWIN CITIES    MOSUNNY   76  55  48 W14       29.76R
ST PAUL        MOSUNNY   76  53  44 NW15      29.75S
CRYSTAL        SUNNY     77  53  43 W13G22    29.74S
BLAINE         MOSUNNY   77  55  47 W10       29.75S
LAKEVILLE      PTSUNNY   73  57  56 W7        29.77R
EDEN PRAIRIE   MOSUNNY   76  56  49 W8G16     29.76R
SOUTH ST PAUL  MOSUNNY   76  52  42 NW12      29.75S
LAKE ELMO      FAIR      72  55  56 W7        29.76S
$$
MNZ001>005-007-008-013>017-022>024-027-028-020000-
   Northwest Minnesota

CITY           SKY/WX    TMP DP  RH WIND       PRES   REMARKS
BEMIDJI        PTSUNNY   67  54  62 W12       29.74R
HALLOCK        MOSUNNY   70  52  52 W9        29.70S
ROSEAU         LGT RAIN  61  54  77 W6        29.71R
WARROAD        LGT RAIN  64  54  68 W13G25    29.71R
THIEF RVR FALL CLOUDY    63  52  67 N3        29.74S
CROOKSTON      PTSUNNY   66  57  72 N5        29.74S
FOSSTON        LGT RAIN  57  55  94 S5        29.75F
DETROIT LAKES  PTSUNNY   72  55  56 CALM      29.74S
MOORHEAD       LGT RAIN  66  55  68 N12G18    29.73R
PARK RAPIDS    CLOUDY    67  54  63 NW9       29.74S
MAHNOMEN       RAIN      60  56  87 NE6       29.76R
$$
MNZ006-009>011-018-025>026-020000-
   North Central Minnesota

CITY           SKY/WX    TMP DP  RH WIND       PRES   REMARKS
BAUDETTE       LGT RAIN  60  54  80 N3        29.68R
FLAG ISLAND    PTSUNNY   61  54  77 N12       29.68R
INTL FALLS     SUNNY     67  53  61 NW8       29.68R
WASKISH        MOSUNNY   70  55  60 CALM      29.70R
BIG FORK       SUNNY     70  50  49 W7G16     29.71R
LONGVILLE      MOSUNNY   66  55  68 W3        29.73R
GRAND RAPIDS   SUNNY     70  48  46 W10       29.73R
CRANE LAKE     MOSUNNY   66  52  59 W5        29.68R
ORR            SUNNY     70  48  46 NW7       29.66R
COOK           SUNNY     70  48  46 W10       29.69R
WALKER         FAIR      66  54  63 W8        29.74R
$$
MNZ012-019>021-037-020000-
   Northeast Minnesota

CITY           SKY/WX    TMP DP  RH WIND       PRES   REMARKS
DULUTH         MOSUNNY   70  50  49 W12G20    29.71R
ELY            MOSUNNY   66  54  63 W13G21    29.67R
HIBBING        SUNNY     70  50  49 W8        29.71R
EVELETH        SUNNY     68  50  52 W10G17    29.71R
DULUTH HARBOR  MOSUNNY   73  52  46 W21       29.69R
TWO HARBORS    SUNNY     70  52  52 W10       29.67R
SILVER BAY     SUNNY     70  57  64 W5        29.65R
GRAND MARAIS     N/A     69  56  62 W6        29.61R
G MARAIS ARPRT MOSUNNY   63  54  72 W7        29.66R
$$
MNZ029>031-032-039>041-046>048-054>057-064-020000-
   West Central Minnesota

CITY           SKY/WX    TMP DP  RH WIND       PRES   REMARKS
FERGUS FALLS   MOSUNNY   73  55  53 SW7       29.73S
WHEATON        PTSUNNY   66  54  63 SW6       29.76F
MORRIS         LGT RAIN  70  61  73 SW12      29.76S
ALEXANDRIA     PTSUNNY   71  56  58 N3        29.78S THUNDER
ELBOW LAKE     FAIR      72  60  64 W5        29.74F
WADENA         CLOUDY    66  57  72 W5        29.75S
GLENWOOD       SUNNY     73  57  56 W9        29.78R
APPLETON       MOSUNNY   79  52  38 W9        29.76R
BENSON         SUNNY     77  57  50 W6        29.77R
ORTONVILLE     MOSUNNY   75  52  43 W7        29.77R
MADISON        SUNNY     77  59  53 W8        29.77S
WILLMAR        FAIR      75  55  50 W7        29.79S
$$
MNZ033>034-036-042>043-049>051-058-059-020000-
   Central Minnesota

CITY           SKY/WX    TMP DP  RH WIND       PRES   REMARKS
ST CLOUD       SUNNY     77  54  44 NW14      29.75S
SAUK CENTRE    FAIR      73  57  56 W9        29.78R
PAYNESVILLE    SUNNY     72  54  54 SW9       29.78R
AITKIN         SUNNY     73  54  49 W5        29.73R
PINE RIVER     MOSUNNY   68  54  60 CALM      29.78R
BRAINERD       SUNNY     69  52  54 W10       29.75R
STAPLES        PTSUNNY   68  55  64 SW7       29.76R
LONG PRAIRIE   PTSUNNY   70  55  60 W6        29.78R
LITTLE FALLS   MOSUNNY   72  52  49 W7        29.76R
LITCHFIELD     SUNNY     75  57  53 W6        29.79R
BUFFALO        SUNNY     74  54  49 W10       29.77S
MAPLE LAKE     SUNNY     74  56  52 W9        29.77S
$$
MNZ037-044-045-052-053-020000-
   East Central Minnesota

CITY           SKY/WX    TMP DP  RH WIND       PRES   REMARKS
PRINCETON      SUNNY     75  55  50 W9        29.75S
MORA           SUNNY     70  50  49 W9        29.75S
CAMBRIDGE      SUNNY     75  57  53 W7        29.73S
RUSH CITY      MOSUNNY   73  55  52 W5        29.74S
MOOSE LAKE     MOSUNNY   70  50  49 W7        29.71R
HINCKLEY       CLOUDY    72  52  49 W8G16     29.73S
CLOQUET        MOSUNNY   70  48  46 W9        29.72R
MCGREGOR       SUNNY     72  50  46 W7        29.74R
$$
MNZ071>073-080-081-089-090-097-098-020000-
   Southwest Minnesota

CITY           SKY/WX    TMP DP  RH WIND       PRES   REMARKS
MONTEVIDEO     SUNNY     81  59  47 W6        29.78S
GRANITE FALLS  SUNNY     75  61  60 SW5       29.80R
CANBY          SUNNY     77  55  46 W8        29.80R
MARSHALL       SUNNY     77  54  44 W10       29.79S
REDWOOD FALLS  SUNNY     77  55  46 W8        29.78S
OLIVIA         SUNNY     73  55  53 W7        29.79R
PIPESTONE      MOSUNNY   73  52  46 W7        29.84R
WINDOM         SUNNY     75  57  53 NW3       29.82S
WORTHINGTON    SUNNY     73  55  53 W8        29.85R
JACKSON        SUNNY     73  55  53 CALM      29.83S
TRACY          SUNNY     76  56  49 W3        29.82R
SLAYTON        SUNNY     75  52  44 CALM      29.84R
$$
MNZ065>067-074>077-082>085-091>093-020000-
   South Central Minnesota

CITY           SKY/WX    TMP DP  RH WIND       PRES   REMARKS
MANKATO        MOSUNNY   75  54  46 NW10      29.80R
NEW ULM        SUNNY     75  57  53 W5        29.79S
FAIRMONT       MOSUNNY   72  55  56 SW3       29.82S
GLENCOE        SUNNY     75  55  49 W6        29.77S
FARIBAULT      PTSUNNY   79  54  41 W8        29.79S
OWATONNA       MOSUNNY   72  59  64 W6        29.81R
WASECA         PTSUNNY   72  52  49 W8        29.82S
ALBERT LEA     MOSUNNY   72  55  56 W3        29.82R
$$
MNZ078>079-086>088-094>096-020000-
   Southeast Minnesota

CITY           SKY/WX    TMP DP  RH WIND       PRES   REMARKS
ROCHESTER      SUNNY     73  56  54 NW10G18   29.81R
RED WING       MOSUNNY   75  55  50 W8        29.75S
STANTON        MOSUNNY   75  56  52 W9        29.77R
DODGE CENTER   MOSUNNY   73  57  56 W8        29.81R
WINONA         SUNNY     77  57  50 NW10      29.76S
AUSTIN         SUNNY     73  55  53 W12G20    29.81R
PRESTON        SUNNY     73  62  69 CALM      29.81R
$$
ABBREVIATIONS USED IN REMARKS
   TC - TEMPERATURES IN CELSIUS
  WCI - WIND CHILL INDEX
   HX - HEAT INDEX
  VSB - VISIBILITY
$$



USA.gov is the U.S. government's official web portal to all federal, state and local government web resources and services.